Terminal Aerodrome Forecast
Issued by NWS Pocatello, ID

Home | Current Version | Previous Version | Text Only | Print | Product List | Glossary On
Versions: 1 2 3 4 5 6 7 8 9 10 11 12 13 14 15 16
000
FTUS45 KPIH 191100
TAFBYI
TAF
KBYI 191120Z 1912/2012 VRB06KT 6SM HZ SKC
     FM191700 27010KT P6SM FEW100
     FM200200 VRB06KT P6SM SKC=

USA.gov is the U.S. government's official web portal to all federal, state and local government web resources and services.